Theta_e
305 305 305 306 307 307 306 305 305 304 304 303 304 304 304 303 303 303 303 303 303 304 304 304 304 304 304 304 303 303 303 303 303 303 303 303 303 303 303 302 301 299 299 298 298 298 299 299 299 299 300 301 302 303 305 306 307 307 306 306 306 307 307 305 305 304 303 303 303 303 303 302 302 303 303 303 303 303 303 303 303 303 304 305 308
305 305 305 305 306 307 306 306 305 304 304 304 303 303 303 303 303 303 303 303 303 304 304 304 304 304 304 304 303 303 303 303 302 302 303 303 303 303 303 302 301 299 298 298 298 298 299 300 299 300 301 302 303 304 307 308 307 306 305 305 306 305 305 304 303 303 302 302 302 302 302 302 302 302 302 302 302 303 303 303 303 303 303 303 304
305 305 305 305 305 306 306 306 306 305 304 304 304 303 303 303 303 303 303 303 303 304 304 304 304 303 303 303 303 303 303 302 302 302 302 302 302 303 303 302 301 299 298 298 298 298 298 298 299 299 301 303 303 304 306 307 306 305 304 304 305 304 303 303 302 302 302 302 301 301 301 301 301 301 301 302 302 302 302 302 303 303 303 303 303
305 305 304 304 305 305 306 306 306 305 305 304 304 303 303 303 303 303 303 303 303 304 303 303 303 303 303 303 302 303 302 302 302 302 302 302 302 302 302 302 301 300 299 298 298 297 297 297 298 298 300 302 302 303 303 303 302 302 302 303 303 304 303 302 302 302 301 301 301 301 301 301 300 301 301 301 302 302 302 302 302 302 302 303 303
306 305 304 304 304 304 305 305 305 305 304 304 303 303 303 303 303 303 303 303 303 303 303 303 302 302 302 302 302 302 302 302 302 302 302 302 302 302 302 302 301 300 299 298 297 297 297 297 297 297 298 299 299 300 301 300 300 300 300 301 301 302 301 300 300 300 300 300 300 301 300 300 300 300 300 301 301 301 301 301 302 302 302 302 302
307 305 304 304 303 303 304 304 305 305 304 303 303 303 303 303 303 303 303 303 303 303 303 302 302 302 302 302 302 302 302 302 302 302 302 302 302 302 302 302 301 300 299 298 298 297 297 297 297 297 297 297 297 298 298 298 298 298 298 299 299 299 299 299 299 299 300 300 300 300 300 300 300 300 300 300 300 300 301 301 301 302 302 302 302
308 306 304 303 303 303 303 303 304 304 303 303 303 303 303 303 302 302 303 303 303 303 303 302 302 302 301 301 301 301 302 302 302 302 301 301 301 302 302 302 301 300 300 299 298 297 297 297 296 296 296 296 296 296 296 296 296 297 297 297 297 297 297 298 298 299 299 299 299 299 299 299 299 299 300 300 300 300 301 301 301 302 302 302 302
308 307 305 304 303 303 303 303 303 303 303 303 303 303 302 302 302 302 302 302 302 302 302 302 302 301 301 301 301 301 301 301 301 301 301 301 301 301 301 301 300 299 299 298 298 297 297 297 297 296 296 296 296 296 296 296 295 296 296 296 296 297 297 297 297 298 298 299 299 299 299 299 299 299 299 300 300 300 301 301 301 302 302 302 302
308 307 306 304 303 302 302 302 302 302 302 302 302 302 302 302 302 302 302 302 302 302 302 301 301 301 301 300 300 300 301 301 301 301 301 300 300 300 300 300 299 298 298 297 297 296 297 296 296 296 296 296 296 296 295 295 295 296 297 297 297 297 297 297 297 297 297 298 298 298 298 298 298 299 299 300 300 300 301 301 301 301 301 301 301
308 307 307 305 304 302 302 302 302 302 302 302 302 302 302 302 301 301 301 301 301 301 301 301 301 301 300 300 300 300 300 300 301 301 300 300 300 300 300 299 298 298 297 296 296 296 296 296 296 296 296 296 295 295 295 295 295 296 298 299 299 298 297 296 297 297 297 297 298 298 298 298 298 299 299 300 300 300 301 301 301 301 301 301 301
308 307 307 306 305 303 302 301 301 301 301 301 301 301 301 301 301 301 301 301 301 301 301 300 300 300 300 299 300 300 300 300 300 300 300 300 299 299 299 298 298 297 296 295 295 295 295 295 295 295 295 295 295 295 295 295 294 295 299 301 301 299 298 297 298 297 297 297 298 298 298 298 298 299 299 299 300 300 300 300 301 301 301 301 301
309 308 307 306 306 304 302 301 301 301 301 301 301 301 301 301 301 300 300 300 301 301 301 300 300 299 299 299 299 299 299 300 300 300 299 299 299 298 298 298 297 296 296 296 295 295 295 295 295 295 295 295 295 295 295 295 294 295 298 301 302 301 299 299 298 298 298 298 298 298 298 298 298 299 299 299 299 299 299 300 300 300 300 300 300
310 308 307 306 306 305 303 302 300 300 300 300 300 301 301 300 300 300 300 300 300 300 300 300 299 299 298 299 299 299 299 299 299 299 299 299 299 298 298 297 297 296 296 295 295 295 295 295 295 295 295 295 295 295 294 294 294 294 295 298 301 300 299 299 298 298 298 297 297 297 298 298 298 298 298 298 298 298 298 299 299 299 299 299 299
312 309 307 305 305 305 305 303 301 300 300 300 300 300 300 300 300 300 300 300 300 300 300 299 299 298 298 298 298 298 298 298 299 299 299 299 299 298 298 297 296 296 295 295 294 294 294 294 294 295 294 294 294 294 294 294 293 293 294 296 297 297 297 297 297 297 297 297 296 297 297 297 297 297 297 297 297 297 297 297 297 297 298 298 298
313 310 307 305 304 304 305 304 303 301 300 300 300 299 299 299 299 299 299 299 299 299 299 299 299 298 298 298 298 298 297 298 298 298 299 298 298 297 297 296 296 295 295 294 294 294 294 294 294 294 294 294 294 294 294 293 293 293 293 293 294 294 295 295 295 296 296 296 295 296 296 296 296 296 296 296 297 297 297 297 297 297 297 297 297
313 312 309 306 304 304 304 304 304 303 301 300 299 299 299 299 299 299 299 299 299 299 299 299 299 298 297 298 298 298 298 299 298 298 298 298 297 297 296 296 295 295 294 294 294 294 294 294 294 294 293 293 293 293 293 293 293 293 293 293 293 293 293 294 294 295 295 295 295 295 295 295 295 295 296 296 296 296 296 296 296 296 296 297 297
313 313 311 308 305 304 303 303 304 304 302 300 299 299 299 299 299 298 298 299 299 299 299 299 299 298 298 298 298 298 299 300 298 298 298 297 297 297 296 295 295 295 295 294 294 294 294 294 294 293 293 293 293 292 292 292 292 292 292 292 293 293 293 293 294 294 294 294 294 295 295 295 295 295 295 295 295 295 295 296 296 296 296 296 296
313 313 312 310 307 305 303 302 303 303 303 301 300 299 299 299 299 298 298 298 298 299 299 299 298 298 298 299 299 299 299 299 298 297 297 297 297 297 296 296 295 295 295 295 295 294 294 294 294 294 293 293 293 292 292 292 292 292 292 292 292 292 292 293 293 294 294 294 294 294 294 294 295 295 295 294 294 294 294 295 295 295 295 296 296
312 312 312 311 309 307 305 303 302 302 303 302 301 300 299 298 298 298 298 298 298 298 299 299 298 298 298 298 299 299 299 299 298 298 297 297 297 297 296 296 296 295 295 295 295 294 294 294 293 293 293 293 293 292 292 292 292 292 292 292 292 292 292 292 293 293 293 294 294 294 294 294 294 294 294 294 294 294 294 294 294 295 295 295 295
310 311 311 311 310 309 307 304 301 301 302 302 302 300 299 298 298 298 298 298 298 298 298 298 298 298 298 298 298 299 299 298 298 298 298 298 298 297 297 297 296 296 296 295 295 294 294 294 293 293 293 293 293 292 292 292 291 291 291 292 292 292 292 292 292 293 293 293 293 293 293 293 293 293 293 293 294 294 294 294 294 294 294 295 295
308 309 309 310 310 309 308 306 303 301 301 301 301 301 299 298 298 298 297 297 298 298 298 298 298 298 298 298 298 298 298 298 298 298 298 299 299 298 298 297 297 297 296 295 295 294 294 293 293 293 293 292 292 292 292 291 291 291 291 291 292 292 292 292 292 292 292 292 292 292 293 293 293 293 293 293 293 293 293 294 294 294 294 295 295
307 307 308 308 308 308 308 306 304 302 300 300 300 301 300 299 298 297 297 297 298 297 297 298 298 298 298 298 298 298 298 298 298 298 298 298 298 298 298 298 297 297 296 295 295 295 294 293 293 293 292 292 292 292 292 291 291 291 291 291 291 292 292 292 292 292 292 292 292 292 292 292 292 293 293 293 293 293 293 293 294 294 294 295 295
306 306 306 306 307 307 307 306 304 302 301 300 300 300 300 299 298 297 297 297 297 297 297 297 297 297 298 298 298 298 298 298 298 298 298 298 298 297 297 297 297 297 296 296 295 294 294 293 293 293 292 292 292 292 292 291 291 291 291 291 291 292 292 292 292 292 292 292 292 292 292 292 292 292 292 292 292 293 293 293 293 294 294 295 295
305 305 306 306 306 306 306 305 304 303 302 301 300 300 300 299 298 297 297 297 297 297 297 297 297 297 297 297 297 298 298 298 298 298 298 298 297 297 297 297 297 297 296 295 295 294 294 293 293 292 292 292 292 292 292 291 291 291 291 292 292 292 292 292 292 292 292 292 292 292 292 292 292 292 292 292 292 292 292 293 293 294 294 294 294
304 305 305 305 305 305 305 305 305 304 303 301 300 300 300 299 298 298 297 297 297 296 296 296 297 297 297 297 297 297 297 297 297 297 297 297 297 297 297 297 297 296 296 295 294 294 293 293 293 292 292 292 292 292 291 291 291 291 292 292 292 293 293 293 293 293 292 293 293 292 292 292 292 292 293 293 293 292 292 293 293 293 294 294 294
303 304 304 304 304 304 304 304 304 303 302 301 300 300 300 299 299 299 298 297 297 296 296 296 296 296 296 297 297 297 297 297 297 297 297 297 297 297 297 297 296 296 296 295 294 293 293 293 293 292 292 292 292 292 291 291 292 292 292 293 293 293 293 293 293 293 293 293 293 293 293 293 293 293 293 293 293 293 292 293 293 293 294 294 294
302 302 302 303 303 303 303 303 303 303 302 301 300 300 300 299 299 299 299 298 297 296 296 296 296 296 296 296 296 297 297 297 297 297 297 297 297 297 297 296 296 295 295 294 294 293 293 293 293 292 292 291 292 292 291 292 292 292 293 293 293 293 293 293 292 292 293 292 292 292 293 293 293 293 292 292 292 292 292 292 292 293 293 293 294
302 302 302 302 302 302 302 302 303 303 302 301 300 299 299 299 299 298 298 298 298 297 296 296 296 296 296 296 296 296 296 296 297 297 297 297 297 296 296 296 296 295 294 293 293 293 293 293 293 293 292 291 291 292 292 292 292 292 292 293 293 293 293 292 292 292 292 292 292 292 292 292 292 292 292 292 292 292 292 292 292 292 292 293 293
301 301 301 301 301 301 301 302 302 302 302 302 301 300 299 298 298 298 298 298 298 297 296 296 296 295 295 295 295 295 296 296 296 296 296 296 296 296 296 296 296 295 295 294 294 294 294 294 293 293 293 292 291 292 291 292 292 292 292 293 293 293 292 292 292 292 291 291 291 291 292 291 292 291 291 291 291 291 291 291 291 292 292 292 292
300 300 300 300 300 300 301 301 301 301 302 302 302 301 300 299 299 298 298 298 298 298 297 297 296 295 295 295 295 295 295 295 296 296 296 296 296 296 296 296 296 296 295 295 294 295 295 294 294 294 293 292 292 292 291 291 292 292 292 292 292 292 292 292 291 291 291 291 291 291 291 291 291 291 291 291 291 291 291 291 291 291 291 292 292
299 299 299 300 300 300 300 300 300 301 301 301 301 301 301 301 300 300 299 299 299 298 298 297 296 295 295 294 294 295 295 295 295 296 296 296 296 296 296 296 296 295 296 295 295 294 295 294 293 293 293 292 292 292 291 292 292 292 292 292 292 292 292 292 292 291 291 291 291 291 291 291 291 291 291 291 291 291 291 291 291 291 291 291 291
299 299 299 299 299 299 300 300 300 300 300 300 301 301 301 301 301 301 301 301 300 299 299 298 297 296 295 294 294 294 294 294 295 295 295 295 295 296 295 295 296 295 295 295 295 294 295 294 293 293 293 292 292 291 291 291 291 291 291 292 292 292 292 292 292 291 290 291 291 291 291 291 291 291 291 291 290 290 290 290 290 290 290 290 290
300 299 298 298 298 299 299 299 299 299 299 299 300 300 300 300 301 301 301 301 301 300 300 299 298 297 296 295 294 294 294 294 294 295 295 295 295 295 295 295 295 295 295 295 295 294 295 294 293 293 292 291 291 291 291 291 291 291 291 291 291 291 291 292 291 291 290 291 291 291 291 290 290 290 290 290 290 290 290 290 290 290 289 289 290
300 299 299 299 299 298 298 298 298 298 298 298 299 299 299 300 300 300 301 301 301 301 300 300 299 298 297 295 294 294 294 294 294 294 294 295 295 295 295 295 295 295 295 295 295 294 294 294 293 292 292 291 291 290 290 290 290 290 290 291 291 291 291 291 290 290 290 290 290 290 290 290 290 290 290 290 290 290 289 289 289 289 289 289 290
300 299 299 299 299 299 298 298 297 298 298 298 298 298 299 299 299 300 300 300 301 301 301 301 301 300 298 297 296 294 294 293 293 294 294 294 294 295 295 295 295 295 295 295 294 294 294 294 293 292 291 291 290 289 289 289 289 289 290 290 290 291 291 290 290 290 290 290 290 290 290 290 290 290 290 290 290 289 289 289 289 289 289 290 290
300 299 299 299 299 299 299 299 298 297 297 298 298 298 298 298 298 299 299 300 300 300 300 300 300 300 299 298 297 296 295 293 293 293 293 294 294 294 294 295 295 295 295 295 294 294 294 294 293 292 291 291 290 289 289 288 289 289 289 289 290 290 290 289 289 290 290 290 290 290 290 290 290 290 290 289 289 289 289 289 289 289 289 290 290
299 299 299 299 299 300 299 299 298 298 297 297 297 297 297 297 297 298 298 299 299 299 300 300 300 300 300 299 298 297 296 295 294 294 293 293 293 294 294 294 294 294 294 294 294 294 293 293 293 291 290 290 289 289 289 288 288 288 288 288 288 288 288 288 289 289 289 289 289 289 289 289 289 289 289 289 289 289 289 289 289 289 289 289 289
298 299 299 299 299 299 299 298 298 298 298 297 296 296 296 296 296 297 297 297 298 298 299 299 299 299 299 299 299 298 297 296 296 295 294 293 293 293 294 294 294 294 294 294 294 293 293 292 292 291 290 290 289 289 289 289 289 289 288 288 288 288 288 288 289 289 289 289 289 289 289 289 289 289 289 289 289 289 289 289 289 289 289 289 288
296 297 298 298 298 298 298 298 297 297 297 296 296 295 295 295 295 295 296 296 296 297 297 298 299 299 299 299 298 298 298 297 297 296 295 294 293 293 293 293 293 294 294 294 294 293 292 291 291 291 290 290 289 289 289 288 288 288 288 288 288 288 288 288 288 289 289 289 289 289 289 289 289 289 289 289 289 289 289 289 289 289 288 288 287
294 295 296 297 298 298 297 297 297 297 296 296 295 294 294 294 294 294 294 295 295 296 296 297 297 298 298 298 298 297 297 297 297 296 295 295 294 293 293 293 293 293 293 293 293 293 292 291 291 291 290 290 289 288 288 288 288 288 288 288 288 288 288 288 289 289 289 289 289 289 289 289 289 289 289 288 288 289 289 289 289 288 287 287 287
293 293 294 296 297 297 297 297 296 296 296 296 294 293 293 293 293 293 293 294 294 295 295 295 296 297 297 297 297 297 297 297 296 295 294 294 293 293 293 293 293 293 293 293 293 293 292 292 291 291 290 290 289 288 288 288 288 289 289 288 288 288 289 288 289 289 289 288 288 288 288 288 288 288 288 288 288 289 289 288 288 287 287 287 287
292 292 293 294 295 296 297 297 296 296 295 295 294 293 292 292 292 292 292 293 293 293 293 294 295 296 296 297 297 297 297 296 296 295 293 292 292 292 292 292 292 292 293 293 293 293 293 292 292 292 291 290 290 289 289 289 288 288 288 288 288 289 289 289 289 289 289 288 288 288 288 288 288 288 289 288 288 288 288 288 287 287 287 286 286
291 291 292 292 293 293 295 296 296 296 296 295 294 293 292 291 291 291 291 292 292 292 292 293 294 294 295 296 296 297 296 296 295 294 293 292 291 291 290 291 291 292 292 293 293 293 293 293 292 292 292 291 291 290 289 289 288 288 288 288 288 289 289 289 289 289 289 289 288 288 288 288 288 288 288 288 288 288 288 287 287 287 286 286 285
288 289 290 291 291 292 292 294 295 296 297 296 294 293 292 291 291 291 291 291 291 291 292 292 292 293 294 294 295 296 296 296 294 293 293 292 291 290 289 289 290 290 291 292 292 292 293 293 293 292 292 291 291 290 289 289 288 288 288 288 288 288 289 289 289 289 289 289 288 288 288 288 288 288 288 288 287 287 287 286 286 286 286 285 285
286 287 287 288 290 290 291 292 293 294 295 296 295 294 293 291 290 290 290 291 291 291 291 291 292 292 292 293 293 294 295 295 294 293 292 292 290 289 289 289 289 289 289 290 291 291 292 292 292 292 292 292 291 290 289 289 288 288 288 288 288 288 288 289 288 288 288 288 287 287 287 287 287 287 287 287 286 286 286 285 285 285 285 284 284
286 286 286 286 287 288 289 290 291 292 293 295 295 295 293 292 290 290 290 290 290 290 291 291 291 291 292 292 292 293 293 294 293 293 292 291 290 289 288 288 288 288 288 289 289 289 290 290 291 291 291 290 290 289 289 288 288 288 288 288 288 288 288 288 287 286 287 287 286 285 286 286 286 286 286 285 285 285 285 285 284 284 284 283 283
286 286 286 286 285 286 287 288 289 291 291 292 294 295 294 292 291 290 289 289 289 290 290 290 290 291 291 291 291 291 292 293 293 293 292 292 291 289 288 288 288 288 288 288 288 289 289 289 289 288 288 288 288 287 287 287 287 287 287 287 286 286 287 286 286 286 285 285 284 284 284 285 285 285 285 284 284 284 284 284 284 284 284 283 283
285 285 285 286 286 285 285 286 287 289 290 291 292 293 294 293 291 290 289 289 289 289 289 289 290 290 290 290 291 290 291 291 292 292 292 291 290 289 289 288 288 288 288 288 288 288 288 288 288 287 287 287 287 286 286 286 286 287 287 286 286 286 285 285 285 285 284 284 283 283 283 283 284 283 283 283 283 283 283 283 284 284 283 283 283
285 285 285 285 285 286 286 285 285 286 288 290 290 291 293 293 292 290 289 289 288 288 289 289 289 289 290 290 290 290 290 290 290 290 290 290 289 288 288 288 287 287 288 288 288 288 287 287 287 286 286 286 286 285 284 285 285 286 287 287 286 285 284 284 284 284 283 283 283 282 282 282 282 282 282 282 282 283 283 283 283 283 283 283 283
284 285 285 285 285 285 286 286 285 285 286 287 289 290 291 292 292 291 289 289 288 288 288 289 289 289 289 289 289 289 289 289 289 289 289 289 288 287 287 286 286 286 287 287 287 287 286 286 285 284 284 284 284 284 284 284 285 286 287 287 286 284 283 283 283 283 283 282 283 282 281 281 281 281 281 281 282 282 282 282 283 283 283 282 282
284 284 284 284 285 285 285 285 286 285 285 286 287 289 290 291 292 292 290 288 288 289 288 288 288 288 288 288 288 288 288 288 288 288 288 288 287 287 286 286 285 286 286 286 286 286 286 285 285 284 284 284 283 283 283 283 284 285 287 287 286 284 283 282 282 282 282 282 282 281 280 281 281 280 280 280 280 281 281 281 282 282 281 281 281
Wind_Speed
31 30 29 28 26 25 24 24 23 23 22 21 20 19 18 16 15 13 12 10 9 8 6 5 5 4 4 4 4 5 4 4 4 4 4 4 5 5 6 6 7 8 9 10 11 11 11 11 12 12 11 11 12 10 8 7 8 9 11 12 10 9 10 11 12 13 13 12 11 11 10 9 9 10 10 9 9 9 9 10 10 11 12 14 16
33 33 32 30 28 27 26 26 25 24 23 22 21 20 19 18 16 14 13 12 10 9 8 7 6 5 4 5 5 5 5 5 5 5 5 5 5 6 6 7 8 8 9 10 11 11 11 11 12 11 10 10 10 8 6 6 8 10 11 11 10 10 11 11 13 14 13 12 11 11 11 9 9 9 10 9 9 9 9 9 9 9 9 10 12
35 34 34 32 30 29 28 28 27 26 25 24 23 22 21 19 17 16 14 13 12 10 9 8 7 6 5 5 5 5 6 5 5 5 5 5 5 6 6 7 8 9 10 11 12 12 12 12 12 11 10 9 9 9 7 7 8 10 10 10 10 10 11 12 13 13 12 12 11 11 11 10 9 9 9 9 9 9 9 9 9 9 9 9 10
36 36 35 34 33 32 31 29 28 27 26 25 24 24 22 21 19 18 17 15 13 12 10 9 8 6 6 5 5 6 6 6 6 6 6 6 6 6 7 8 9 9 10 11 11 12 12 12 12 12 11 10 11 12 11 10 11 12 11 10 9 9 11 13 12 12 11 11 10 10 11 10 9 9 9 9 9 9 9 10 10 10 10 10 10
37 37 37 36 35 34 32 31 30 28 28 27 26 25 24 23 22 20 19 17 15 13 11 10 9 7 7 6 6 6 7 7 7 7 7 7 7 7 7 8 9 10 10 11 11 11 11 12 12 12 12 12 13 13 12 12 12 11 10 10 10 10 11 11 10 10 10 10 10 9 10 10 10 10 10 10 9 10 10 10 10 10 11 11 11
39 38 38 38 37 35 34 33 32 30 30 29 28 27 26 25 24 22 20 18 16 15 13 11 10 9 8 7 7 7 7 8 7 7 8 8 8 8 8 8 9 10 10 10 11 11 11 11 11 11 12 13 13 12 12 12 11 10 10 10 11 11 11 10 10 10 10 10 10 9 10 10 11 11 11 10 10 10 10 10 10 10 11 11 11
41 40 39 40 39 38 36 35 34 32 31 30 30 29 28 27 25 23 21 20 18 16 15 13 12 11 10 9 8 8 8 8 8 8 8 8 8 8 9 9 9 9 10 10 10 11 11 11 11 11 11 12 12 12 13 12 11 11 10 10 11 11 10 10 10 10 10 10 10 10 10 10 11 12 11 11 10 10 10 10 10 10 10 11 11
42 41 40 41 41 40 39 38 36 34 33 32 32 31 30 28 26 24 23 22 20 18 17 15 14 12 11 11 10 9 9 8 8 8 8 9 9 9 9 9 10 9 9 10 10 11 11 11 11 11 12 12 12 13 12 12 12 11 10 10 10 10 10 10 10 9 10 10 10 10 10 10 11 12 12 12 11 11 11 11 10 10 11 11 11
44 42 42 42 41 41 41 39 37 36 36 35 34 33 31 30 28 26 25 24 22 20 18 17 16 14 13 12 11 10 10 9 9 9 9 9 9 9 10 10 10 9 9 9 10 10 11 11 12 13 13 13 13 13 13 12 12 10 9 9 9 9 9 10 10 9 10 10 11 11 11 11 12 13 13 12 13 13 13 12 12 12 12 12 12
45 44 44 43 42 42 41 41 40 39 38 37 36 35 33 31 30 29 28 26 24 22 20 19 17 16 15 13 12 11 10 10 10 10 10 10 10 10 10 10 10 10 9 9 9 10 11 11 12 13 13 13 13 13 13 13 13 10 8 7 7 7 9 10 10 10 11 12 13 13 13 13 14 14 14 14 14 14 14 14 14 14 14 14 14
47 46 45 44 43 42 42 42 42 41 40 39 38 37 35 33 32 31 30 28 26 24 23 21 19 17 16 15 14 13 12 11 10 11 10 10 10 10 11 11 11 11 10 10 10 11 11 11 12 12 12 13 13 14 14 14 14 11 7 5 4 6 9 10 11 13 14 14 14 14 14 15 15 15 15 16 16 16 15 15 15 15 15 16 16
48 48 47 46 44 44 43 43 43 43 42 41 40 38 36 36 34 33 32 30 29 27 25 23 21 19 17 16 16 14 13 12 12 11 11 11 11 11 12 12 12 12 12 12 12 12 12 12 12 12 13 13 13 14 14 14 14 12 8 5 3 5 8 11 13 15 15 15 15 15 15 15 15 16 16 16 16 16 16 16 16 16 16 17 17
50 49 49 48 47 45 45 44 45 45 44 43 41 39 38 37 36 34 33 32 31 30 28 25 22 21 20 18 17 15 14 13 13 12 12 12 12 13 13 13 13 13 13 13 13 13 13 13 13 14 14 14 14 15 15 15 15 15 13 9 6 8 12 13 14 15 15 14 14 15 15 15 15 15 16 16 16 16 16 16 16 16 17 17 18
51 51 51 50 49 48 46 45 45 45 44 43 42 41 39 38 37 36 36 35 33 32 29 27 24 23 22 19 17 16 15 14 14 14 14 14 14 14 14 14 13 13 12 12 12 12 13 13 13 14 14 14 15 15 16 16 16 17 17 15 13 13 14 14 14 14 14 14 13 14 14 14 14 15 15 15 15 15 15 15 15 15 16 16 17
52 52 52 52 51 50 48 46 46 45 45 44 44 42 41 40 39 39 38 37 35 33 31 28 27 25 22 18 17 15 14 17 18 16 16 16 15 15 15 14 14 13 13 12 13 13 13 13 13 14 14 15 15 16 16 16 17 17 17 18 18 16 15 14 14 14 14 13 12 13 13 13 14 14 14 14 14 14 14 14 14 14 15 15 16
53 53 53 53 52 51 49 48 46 46 46 46 46 45 44 43 42 41 40 39 37 35 32 31 30 28 23 18 15 13 12 15 19 18 17 16 16 16 16 16 15 15 14 15 15 15 15 14 13 14 14 15 16 16 17 17 17 17 17 18 18 17 16 16 15 14 14 13 12 13 13 13 13 14 14 14 14 14 14 14 14 14 15 15 15
53 53 53 53 53 52 51 49 48 47 47 47 47 47 46 45 44 43 42 40 39 36 34 34 33 30 28 22 16 13 13 15 15 16 17 17 17 18 18 18 18 17 17 18 19 19 18 16 15 15 15 16 16 16 17 17 17 17 17 16 16 16 16 16 15 14 14 13 13 13 13 13 13 14 14 13 13 13 14 14 13 14 14 15 15
53 53 53 53 54 53 52 51 49 48 48 48 48 48 47 46 45 44 43 42 40 39 37 36 34 33 33 30 23 17 16 16 14 12 16 18 18 18 20 20 20 19 19 19 20 20 19 18 17 16 16 16 16 16 16 16 16 16 16 16 16 15 15 15 15 14 14 14 13 13 13 14 13 13 13 12 12 12 12 12 12 13 13 13 14
51 53 53 54 54 54 53 52 51 50 49 49 49 49 48 47 45 44 44 43 43 42 40 37 36 36 35 34 32 26 22 19 17 14 13 17 19 20 21 22 22 21 20 20 20 20 20 18 17 16 16 16 16 16 17 16 16 16 16 16 15 15 15 15 15 14 14 14 14 13 13 13 13 12 11 11 11 11 11 11 11 11 11 11 12
47 50 52 53 54 54 54 54 53 52 51 50 50 49 48 47 46 46 45 45 45 43 42 40 39 38 36 35 34 32 29 26 23 19 14 13 18 20 21 22 22 22 21 21 21 20 20 19 17 15 15 16 17 17 17 17 17 17 16 16 15 15 15 15 15 14 14 14 13 13 12 12 12 11 10 10 10 10 9 9 10 10 10 10 11
42 46 49 51 52 53 54 55 54 54 53 52 51 49 48 48 47 47 47 47 46 44 44 43 42 40 38 36 35 33 32 30 27 25 20 16 15 18 20 20 21 22 21 21 21 21 20 19 17 16 16 17 18 18 18 18 18 17 16 15 15 15 15 15 14 13 13 12 12 11 11 11 10 10 10 9 9 9 9 9 8 9 9 10 11
38 40 43 46 49 52 54 56 55 55 54 52 52 50 49 49 48 47 47 47 47 46 46 45 43 42 40 38 36 35 34 32 30 27 26 22 19 19 20 19 20 20 20 21 22 21 20 19 18 17 17 18 19 19 19 20 19 17 16 15 15 15 14 13 12 11 10 10 9 10 10 10 10 9 9 9 8 8 8 8 8 9 9 9 10
36 37 38 41 45 49 53 55 56 56 55 53 52 51 50 49 48 47 48 48 48 47 47 46 44 43 42 41 39 38 35 34 32 28 27 26 24 23 22 19 19 20 19 20 21 21 20 19 19 19 18 19 20 20 20 20 19 17 15 14 13 13 11 10 9 8 9 9 8 9 9 9 8 8 7 7 6 7 7 7 8 8 8 8 9
34 35 35 37 40 45 49 53 55 56 56 54 53 52 51 50 49 48 48 49 49 49 48 48 46 45 45 43 41 40 38 35 33 29 27 26 24 23 22 20 20 21 20 20 21 21 21 20 20 20 19 20 21 20 20 20 18 15 13 13 12 11 9 8 8 8 8 8 8 8 8 8 7 7 6 6 5 6 6 7 8 8 8 8 9
34 33 32 34 36 40 44 48 52 55 55 55 54 53 53 51 50 48 49 49 50 50 49 48 47 46 46 45 43 42 40 37 34 31 29 27 24 24 23 21 21 22 21 21 22 22 22 22 21 21 21 22 21 20 20 19 17 14 13 12 11 10 9 8 8 8 9 9 8 8 8 8 8 7 7 6 6 6 7 8 9 9 10 10 11
33 32 32 32 33 35 39 43 48 52 54 54 54 54 53 52 50 49 49 49 49 49 49 49 48 48 47 46 45 44 42 39 36 34 32 30 28 27 26 23 22 23 22 22 24 24 23 23 22 22 22 23 22 21 21 19 16 14 13 12 11 10 9 9 9 9 10 9 9 9 9 9 9 9 8 8 8 8 8 9 10 11 11 12 13
33 33 32 32 32 32 35 38 42 47 50 52 53 53 53 52 52 51 50 49 49 50 50 50 50 50 49 48 47 45 43 41 39 37 35 34 32 30 27 25 24 24 23 24 24 25 25 24 23 23 24 24 23 22 22 20 17 15 14 13 12 10 9 9 9 10 10 9 10 10 10 10 10 10 10 10 10 10 10 10 10 11 12 12 13
32 32 32 32 32 32 33 34 36 40 45 49 51 52 53 53 53 53 52 51 50 50 51 51 52 51 50 50 48 47 45 43 41 39 38 36 34 32 29 27 26 25 24 26 26 26 26 26 24 24 25 25 25 23 23 21 18 16 15 13 11 10 9 9 9 10 10 10 10 11 11 11 11 11 11 11 11 11 11 11 11 12 12 13 14
31 32 32 33 33 32 33 33 33 35 38 42 47 50 52 53 54 54 53 52 52 51 51 52 52 52 52 51 50 49 47 45 43 41 40 38 36 34 32 30 28 25 24 26 28 28 28 26 26 25 25 26 26 24 23 21 19 17 15 14 11 10 9 8 9 9 10 10 11 11 11 11 12 12 11 11 12 12 12 12 12 13 13 14 15
30 31 32 32 33 33 33 33 33 34 35 37 40 45 49 52 54 54 54 54 53 53 53 53 53 53 53 53 52 51 49 47 45 44 42 41 39 37 35 32 31 29 27 25 24 26 27 26 26 26 25 26 27 25 24 22 19 17 16 14 12 10 9 9 9 9 10 11 12 12 12 12 13 13 13 13 13 13 13 13 14 14 14 15 15
27 28 30 31 32 32 33 33 34 34 35 36 37 39 43 47 50 53 54 54 54 54 54 54 54 54 54 54 53 53 51 49 48 46 45 44 42 40 37 35 34 32 32 29 24 25 27 25 25 26 25 26 27 26 25 23 21 19 17 15 13 11 10 10 10 10 11 12 12 13 13 13 14 14 14 14 14 14 14 14 14 15 15 15 16
24 25 26 28 29 31 32 33 34 35 36 37 38 39 40 43 45 48 50 52 54 55 55 55 55 55 55 55 55 54 53 52 50 49 48 46 44 42 40 38 37 35 34 34 30 29 29 26 26 26 26 27 28 28 27 25 22 21 19 16 14 12 11 11 10 11 12 13 13 13 14 14 15 15 15 15 15 15 15 15 15 15 15 15 15
21 22 24 25 26 28 30 32 33 35 36 37 38 39 41 43 44 45 47 49 51 53 55 56 56 55 55 56 56 56 55 54 53 51 50 49 47 45 43 41 40 39 37 36 34 34 32 29 29 28 27 29 30 29 28 26 24 22 20 17 15 13 12 12 11 12 13 14 14 14 14 15 16 16 15 15 15 15 15 15 14 14 14 14 14
19 20 21 23 24 25 28 30 32 34 35 37 38 40 41 42 44 45 46 48 49 51 53 55 57 57 57 57 57 57 56 56 55 54 53 52 50 48 47 45 43 42 40 38 36 36 35 32 31 30 29 30 31 30 28 26 24 22 20 18 16 15 13 12 12 13 14 14 14 14 15 16 16 16 15 14 15 15 15 15 14 14 14 15 16
20 20 20 21 22 23 25 28 30 32 34 35 37 39 41 42 44 45 46 47 48 50 52 53 55 56 57 58 59 58 58 57 57 56 55 54 53 51 50 48 46 44 42 40 38 38 37 34 33 33 31 31 31 30 28 26 24 23 21 19 17 15 14 13 14 14 15 15 15 15 15 16 16 16 15 15 15 15 15 14 14 15 16 17 18
21 21 21 22 22 23 25 26 28 30 32 34 36 38 39 41 43 44 45 47 48 50 52 53 54 55 57 58 60 59 59 58 59 59 58 57 55 54 52 50 49 47 44 42 40 40 38 36 34 34 33 32 31 30 28 26 24 23 21 19 17 16 14 14 15 15 15 15 15 15 16 16 16 16 15 16 16 16 15 15 16 17 18 18 18
24 23 23 23 23 25 26 27 28 29 30 32 34 37 38 40 41 43 45 47 48 50 51 53 54 55 56 58 59 59 59 60 60 61 61 60 58 57 55 53 51 49 47 44 42 41 40 38 36 35 34 33 32 30 28 26 24 23 22 20 18 16 15 15 16 16 16 16 16 16 17 17 17 16 16 16 17 17 17 17 17 18 18 18 18
26 26 25 25 25 26 27 27 28 29 30 31 33 36 38 40 41 42 44 46 48 50 52 53 53 54 55 57 58 59 60 62 63 62 62 61 61 60 58 57 54 51 49 47 44 43 42 41 39 37 35 34 32 30 28 26 26 25 23 22 20 18 17 17 17 17 17 17 17 17 18 18 18 17 17 18 18 18 18 17 18 18 18 18 17
27 27 28 28 27 28 28 29 29 29 29 30 32 34 37 40 42 43 44 46 48 50 51 53 54 54 55 56 57 59 61 63 64 64 63 62 62 62 61 59 56 54 52 49 47 45 44 44 42 40 37 35 33 32 30 27 27 27 26 25 23 21 19 19 18 19 19 19 19 19 19 20 19 18 18 19 20 19 18 18 18 18 18 17 16
26 27 28 29 29 29 30 31 31 31 31 31 32 33 36 39 42 43 45 46 48 49 50 51 53 54 56 57 58 60 61 63 64 64 63 63 63 64 63 61 58 56 55 53 50 48 47 46 45 42 40 37 35 34 32 31 30 30 29 27 25 24 22 20 20 21 22 21 20 20 20 21 20 19 18 19 20 20 19 18 19 18 17 17 16
26 26 26 27 28 30 30 31 32 33 34 34 33 33 34 36 39 41 44 46 48 48 50 51 52 53 55 57 59 60 61 62 63 63 64 64 64 64 64 63 61 59 57 56 53 51 50 48 47 45 43 40 38 37 36 34 33 32 31 29 27 26 24 21 21 23 24 22 21 20 21 22 21 19 19 19 20 20 19 19 19 18 17 17 17
27 26 26 26 27 28 30 31 31 32 34 35 34 33 33 35 37 39 42 45 46 48 51 53 53 53 54 57 58 59 59 60 62 63 64 65 66 65 64 63 62 61 60 58 56 54 52 51 49 47 45 43 41 39 38 36 34 34 33 32 30 28 26 23 22 24 26 24 22 21 22 23 23 21 20 21 21 21 20 19 19 19 18 17 17
30 29 28 27 27 27 29 30 31 32 33 34 34 33 33 34 35 37 40 43 45 48 51 53 54 53 54 56 58 58 59 60 62 63 64 65 66 65 64 64 63 62 61 60 58 56 54 52 50 48 47 45 42 39 38 38 36 35 34 33 31 30 28 25 24 25 27 27 25 23 22 24 25 23 21 21 21 20 19 19 19 19 18 17 17
33 33 32 31 30 29 30 30 31 32 33 33 33 33 33 33 33 36 39 42 44 47 49 51 53 53 54 55 57 57 58 60 62 62 64 65 66 65 64 64 64 62 61 60 59 57 55 53 51 49 47 45 42 41 40 39 37 36 35 33 32 31 29 26 24 26 29 28 26 25 23 23 25 24 21 20 21 21 19 18 18 19 18 17 17
34 34 34 34 33 33 32 33 33 33 33 33 33 33 33 33 32 34 38 40 42 45 48 50 51 53 53 54 56 57 57 59 61 62 63 64 65 65 64 64 64 63 62 60 59 57 55 52 51 50 48 45 43 41 40 38 37 36 35 34 33 32 30 27 25 26 29 29 26 26 24 21 23 25 21 19 21 21 19 18 18 19 18 16 16
37 37 36 36 35 35 35 35 35 36 35 34 34 34 34 33 32 33 36 39 41 43 47 49 51 52 53 53 55 57 57 57 60 62 63 63 64 64 64 64 64 64 63 61 60 58 55 51 48 46 44 43 42 40 39 38 37 36 35 34 33 32 31 28 26 26 27 28 26 26 24 20 21 24 22 19 21 22 20 18 18 19 18 16 16
40 39 39 38 37 36 35 36 37 38 37 35 35 34 34 33 31 31 34 38 41 43 46 49 51 52 52 52 54 56 57 58 59 61 63 62 61 62 63 64 64 64 63 63 61 59 56 52 46 41 39 38 39 39 39 38 37 35 34 33 32 32 31 28 27 26 25 26 25 25 25 21 20 23 22 20 22 23 21 19 18 18 17 16 17
44 43 41 41 40 39 37 36 37 39 39 37 36 36 35 33 31 31 33 37 41 44 46 48 50 51 52 52 53 56 57 58 59 60 61 60 59 60 62 63 64 64 64 64 63 60 56 51 47 44 42 40 39 39 40 39 38 36 34 32 32 33 32 29 27 25 23 24 25 25 25 22 19 21 23 22 23 25 23 21 19 17 16 17 19
46 46 45 44 43 42 41 39 38 39 39 38 37 37 37 35 32 31 33 36 40 44 46 46 47 50 51 51 52 55 57 58 58 59 59 58 57 57 60 61 63 64 64 64 63 59 55 50 47 45 44 42 41 40 39 39 38 36 34 33 33 34 32 29 26 24 23 23 24 25 25 22 19 21 24 24 25 25 24 22 20 17 17 18 20
48 49 49 48 47 45 44 43 41 40 40 39 38 38 38 37 34 33 33 35 39 43 45 45 45 47 49 50 51 54 55 56 57 57 57 57 56 56 58 59 61 63 64 64 62 59 55 50 47 44 43 42 41 40 39 38 37 36 34 33 34 33 31 28 26 24 22 23 24 25 25 23 20 21 24 25 26 26 23 21 20 18 19 21 23
49 50 51 52 52 50 47 45 44 43 42 40 38 38 39 38 37 35 34 35 38 42 43 44 45 47 48 49 50 53 54 54 55 54 55 56 56 56 57 58 60 63 64 63 62 60 56 51 48 45 44 42 40 40 38 35 35 36 35 34 35 33 30 28 26 24 22 23 24 24 24 22 21 21 22 24 25 24 22 21 20 20 23 24 25
Wind_Direction
225 224 224 224 222 220 217 216 214 214 213 213 213 214 215 218 219 221 223 224 227 234 241 253 268 284 301 313 319 321 321 321 319 319 319 315 314 310 304 297 289 283 278 275 273 270 268 267 267 269 271 270 271 273 269 253 248 258 267 269 266 266 271 275 278 282 287 291 294 299 302 303 303 302 301 301 302 302 301 299 296 289 279 270 265
226 226 226 225 224 222 220 219 217 216 215 215 214 215 216 217 219 221 223 225 229 236 243 252 263 277 293 303 310 314 314 315 315 316 315 313 312 308 304 298 291 284 276 271 266 263 261 262 262 262 260 264 267 260 247 247 253 258 266 270 270 271 275 278 282 287 292 294 296 297 298 303 306 306 306 305 305 304 303 303 303 304 300 292 283
228 227 227 226 225 223 222 221 220 218 217 217 216 216 217 218 219 221 223 227 231 236 242 250 258 269 281 291 300 305 306 308 309 310 309 307 306 303 300 296 291 285 277 271 267 266 264 262 260 255 252 255 253 247 248 254 262 268 269 269 271 273 274 279 285 289 291 292 295 297 298 303 305 304 303 302 302 301 301 302 304 306 307 307 304
230 229 228 227 226 224 224 223 222 221 220 219 218 218 218 219 220 221 223 227 231 237 241 248 256 264 275 285 295 299 301 303 304 304 303 301 299 297 294 291 288 284 279 274 269 267 264 262 260 255 247 245 246 252 261 266 272 279 275 269 268 268 273 282 288 289 290 290 294 298 297 300 302 300 299 299 300 300 303 306 308 309 309 309 309
231 230 230 228 227 226 225 225 224 223 222 221 219 219 219 220 221 222 224 227 232 236 239 245 253 261 270 278 286 291 295 298 300 300 299 297 295 292 289 286 284 282 281 278 272 265 261 260 260 257 251 249 254 260 269 274 278 280 277 272 271 274 283 292 293 291 292 292 295 299 297 299 302 301 301 303 305 306 309 310 310 310 310 310 309
232 231 230 229 228 227 226 226 226 225 223 223 221 221 221 221 222 224 226 228 232 235 237 242 248 255 262 269 276 282 288 293 296 298 295 293 290 287 285 282 280 278 277 276 274 268 263 260 257 256 255 256 261 264 268 273 276 275 274 276 278 282 289 292 290 290 292 295 298 299 299 301 304 304 304 306 307 307 306 306 305 305 306 306 306
232 231 231 231 230 228 227 227 227 226 225 225 224 223 223 223 224 225 226 228 231 233 235 238 243 249 254 261 267 273 280 286 290 291 289 288 286 284 282 279 276 275 274 272 271 270 267 266 263 259 257 258 260 260 262 266 268 269 270 272 277 281 283 285 287 289 291 295 298 298 299 299 299 300 300 300 299 297 296 296 296 297 297 298 299
233 232 232 232 231 229 228 228 228 227 227 227 226 225 224 224 225 225 227 229 231 232 233 235 239 243 248 253 258 264 272 279 285 287 287 286 285 283 281 277 274 271 270 270 269 270 270 271 270 266 262 261 260 260 261 263 265 266 267 268 271 274 276 278 282 285 288 290 290 289 289 288 288 288 287 286 284 283 283 283 284 285 286 288 289
234 233 232 232 231 231 230 230 229 228 228 228 227 227 225 225 225 225 226 228 230 230 231 233 235 239 242 246 252 258 266 274 282 285 285 284 282 281 279 274 271 267 265 265 266 268 270 270 270 269 268 266 264 263 263 261 262 263 263 263 264 265 268 272 273 273 274 273 273 272 272 272 272 273 274 274 276 277 280 282 284 286 287 288 289
235 234 233 233 232 232 231 230 230 229 229 228 228 228 226 226 225 225 226 226 227 228 229 231 233 236 237 240 246 252 259 267 275 277 277 278 278 278 276 271 266 262 259 259 261 264 265 268 268 269 269 268 266 263 262 260 257 256 255 255 257 258 260 261 261 257 258 260 261 264 265 265 266 269 273 276 279 281 283 286 287 289 290 291 291
236 235 234 234 233 232 232 230 230 230 229 229 228 227 226 226 225 225 226 226 226 227 228 229 230 231 233 236 241 247 253 260 266 269 270 274 275 273 270 267 263 258 256 255 258 260 262 264 265 266 267 266 264 260 259 256 250 245 239 236 241 252 255 254 254 254 256 259 262 265 266 267 269 272 275 276 277 278 279 280 281 282 284 286 288
237 236 235 235 234 233 232 231 230 230 230 230 230 229 228 227 226 225 226 226 226 226 226 225 225 227 230 233 238 242 248 255 260 262 266 268 269 267 263 260 258 254 253 254 256 258 260 261 262 262 262 260 258 255 254 252 247 239 228 220 217 240 250 252 255 258 260 262 265 267 267 268 269 269 270 270 271 272 274 274 275 277 278 280 283
238 237 236 236 235 234 233 231 230 230 231 232 232 232 230 228 227 226 226 226 226 225 224 222 221 223 225 228 234 240 244 250 254 257 261 264 262 260 257 255 253 252 251 252 254 257 258 259 260 260 259 257 255 252 250 248 244 236 227 220 218 237 250 256 261 265 264 263 263 263 264 266 267 268 268 269 271 272 274 275 277 278 278 279 281
239 237 237 236 235 235 234 233 232 232 232 232 232 233 231 229 228 226 226 226 226 226 224 220 218 221 225 228 231 236 242 246 250 254 255 256 256 254 253 251 250 249 249 250 252 254 256 257 259 260 260 258 256 254 250 247 244 241 237 235 235 242 252 258 261 263 263 260 258 260 264 266 267 268 268 269 271 271 273 275 276 276 276 277 279
240 238 237 237 237 236 236 235 234 233 233 232 232 232 231 230 229 227 226 225 225 226 225 223 220 219 221 226 232 233 240 244 245 250 251 249 249 249 248 246 244 243 244 248 250 253 255 256 259 261 261 260 258 256 253 249 246 244 245 244 244 247 252 255 256 259 262 262 261 263 266 268 268 268 269 270 270 271 273 272 273 274 275 275 276
241 239 238 238 238 238 237 236 235 235 235 234 233 233 231 230 229 228 227 226 226 226 225 224 222 219 215 216 224 224 232 244 244 245 245 244 245 245 244 241 238 238 241 246 252 255 255 256 260 262 261 259 257 255 253 250 246 245 245 246 249 250 253 256 259 262 265 266 265 266 268 269 269 269 270 272 272 274 274 274 276 278 278 279 280
243 241 239 238 239 239 239 238 237 236 236 236 235 235 234 232 230 229 229 228 229 229 227 225 224 223 219 215 215 214 224 239 239 238 241 241 242 243 241 239 238 241 246 252 257 257 253 255 260 262 261 259 255 252 249 247 245 244 244 246 250 253 256 259 262 265 267 268 268 267 267 267 268 269 271 273 275 276 277 279 282 283 284 286 287
245 244 241 240 239 239 240 239 238 237 237 237 236 236 235 234 233 232 231 230 230 230 229 228 225 225 225 225 228 227 229 231 223 226 237 238 241 242 240 240 241 245 252 258 261 257 251 254 259 260 259 257 253 249 245 243 242 242 243 246 249 253 258 262 266 268 269 269 268 266 266 266 267 268 270 273 274 276 279 282 283 285 288 289 290
248 246 243 241 239 239 240 240 240 239 238 238 238 237 237 236 236 235 234 232 230 230 231 230 227 226 228 230 233 235 236 235 226 225 231 235 240 241 241 243 244 248 252 256 258 254 251 254 258 256 254 251 249 245 242 239 238 238 239 242 246 251 256 262 265 266 267 266 265 264 263 264 265 266 267 270 272 275 278 281 283 287 291 292 292
251 248 245 243 241 240 240 240 240 239 239 239 240 240 239 238 236 235 235 233 232 232 233 232 230 230 230 230 233 235 237 239 239 239 233 235 242 241 241 244 245 246 247 250 252 250 250 254 255 253 249 245 241 237 235 233 230 231 234 238 243 248 252 255 257 258 259 259 260 260 260 261 262 263 264 265 267 269 272 275 279 284 289 291 292
256 253 250 246 243 241 240 240 240 240 240 240 241 241 241 239 237 235 234 234 234 234 233 234 234 234 234 232 234 235 235 238 241 242 237 234 242 244 243 244 243 243 243 245 247 247 249 252 252 249 244 239 234 230 228 225 223 224 229 236 240 244 246 246 247 250 252 254 255 255 256 256 257 256 256 257 258 260 265 270 275 279 283 286 287
262 259 255 251 246 243 241 240 240 240 240 240 241 242 242 241 240 238 237 236 236 235 234 236 236 236 237 237 236 235 234 234 235 237 238 236 237 244 249 247 245 244 241 242 244 246 248 249 249 246 240 235 229 227 227 221 218 221 229 235 238 240 241 242 244 246 247 247 249 250 251 252 252 252 252 254 257 260 266 271 274 277 279 281 284
268 263 259 254 250 246 243 241 241 241 240 240 241 242 243 243 242 240 239 238 238 237 236 237 236 236 237 237 238 238 237 237 238 239 240 239 238 243 249 249 247 246 243 240 241 243 245 245 246 243 237 232 227 227 226 218 216 223 231 235 238 240 243 246 247 247 245 242 241 246 250 251 253 253 256 262 268 272 276 280 284 288 289 291 292
274 270 266 260 254 249 245 243 242 241 241 240 240 241 242 244 243 241 240 239 239 238 237 237 237 236 237 237 238 240 240 242 244 244 244 245 244 244 247 246 244 245 244 238 237 240 242 243 241 237 234 230 227 228 222 215 218 227 233 236 240 245 249 252 254 253 250 247 248 252 257 260 263 266 270 278 286 290 293 296 302 306 307 308 310
279 277 274 269 262 256 251 248 245 244 243 241 241 241 241 242 243 242 241 240 240 239 238 239 239 239 239 239 239 239 240 240 243 245 245 245 242 239 243 243 241 244 243 236 236 239 240 241 238 235 231 228 227 226 220 217 222 229 233 238 243 248 253 258 260 263 263 262 267 270 272 275 279 285 292 297 301 304 307 309 312 315 315 316 318
282 281 280 276 271 265 260 255 251 248 246 244 243 242 242 243 243 243 242 242 241 241 240 240 241 240 240 240 240 240 240 240 241 242 243 242 240 238 241 240 238 242 242 237 237 239 239 239 239 236 230 226 227 224 220 221 225 229 234 239 245 252 259 264 268 272 274 278 286 289 289 291 295 301 304 307 309 312 314 315 315 317 317 317 317
284 283 281 278 276 271 266 261 256 252 249 247 246 245 244 244 244 244 243 243 242 241 241 241 240 240 239 239 240 240 240 241 241 241 242 242 243 243 244 240 236 237 239 238 238 238 239 240 239 237 231 226 226 224 222 224 226 228 232 235 241 249 256 265 272 276 280 288 295 296 298 301 305 310 312 313 314 315 316 317 317 317 317 319 319
285 284 282 280 278 275 271 267 263 258 254 250 247 246 245 245 245 244 244 243 242 241 241 241 240 240 239 239 239 239 239 240 240 241 242 242 244 245 244 241 236 234 234 236 236 236 238 239 239 238 234 228 227 226 224 226 228 229 232 234 239 245 254 264 273 279 287 295 299 301 305 310 313 315 315 314 313 315 317 317 318 320 321 323 324
287 287 285 282 280 277 274 271 267 263 259 255 252 248 246 246 246 245 245 244 243 242 241 240 240 240 239 239 238 239 239 239 239 240 240 241 242 242 242 241 238 234 232 234 237 239 239 239 240 240 237 234 230 228 227 229 231 232 234 238 242 249 258 269 277 286 294 298 302 305 309 313 315 315 312 311 313 316 318 318 320 322 324 325 327
287 286 286 283 281 279 276 274 271 267 264 260 257 253 250 248 247 247 246 246 245 243 242 241 240 240 239 238 238 238 239 238 239 239 239 240 241 241 240 240 238 236 235 235 240 244 242 239 240 239 237 236 233 231 231 234 237 238 239 242 246 253 263 273 283 292 297 299 303 307 310 313 312 311 310 312 316 317 317 318 319 321 323 326 328
284 284 283 283 282 281 278 276 273 270 267 263 260 257 254 252 251 250 248 247 246 245 243 242 241 240 239 238 238 238 238 238 238 238 239 239 239 240 239 240 240 239 240 239 238 244 245 239 238 237 233 232 232 232 234 237 239 241 242 244 247 253 261 271 282 290 293 295 300 303 307 309 308 309 311 314 316 315 315 316 317 319 321 324 326
286 283 281 281 281 281 281 279 276 273 270 266 263 260 257 255 254 253 252 250 248 247 245 243 242 241 240 239 238 238 238 237 237 237 238 238 238 239 239 239 240 239 240 240 238 242 246 241 236 235 230 228 230 231 232 234 237 239 241 243 246 251 257 267 276 281 284 288 294 298 302 304 304 306 309 313 313 312 311 312 314 316 318 321 324
286 284 283 281 280 280 279 278 277 275 273 270 267 264 261 258 256 254 253 252 251 249 247 245 243 242 241 240 239 238 238 238 238 237 237 237 237 237 237 237 238 238 238 238 238 241 244 242 238 236 230 228 229 229 229 231 233 235 237 240 243 247 254 263 269 273 277 283 288 293 298 300 301 303 306 309 309 307 306 307 308 311 315 318 318
291 285 283 280 279 278 278 277 276 275 273 271 269 266 264 262 260 257 255 253 252 251 249 247 245 243 241 241 240 239 238 238 238 238 237 237 236 236 236 236 237 238 237 237 238 240 242 241 240 238 233 229 228 229 229 231 231 232 234 236 238 242 249 257 263 268 274 280 285 290 294 295 297 300 304 306 304 301 302 303 306 309 312 313 312
306 296 289 284 280 276 275 275 274 274 273 271 269 267 265 264 262 260 259 257 255 253 251 249 247 245 243 241 240 240 239 238 238 238 237 237 236 236 236 236 236 237 237 237 237 239 241 241 239 239 236 231 229 230 230 231 232 233 234 234 234 238 244 250 257 264 271 276 282 286 289 291 293 297 300 300 297 296 298 301 305 308 309 310 310
323 311 300 293 287 282 277 274 272 272 271 271 269 268 266 265 263 262 261 260 258 256 254 252 250 248 245 243 242 241 240 239 239 238 237 236 236 236 236 236 236 237 237 236 236 237 240 241 239 238 237 235 233 233 233 233 234 235 237 237 235 236 239 244 253 262 268 272 277 281 283 286 289 293 295 294 293 294 297 300 302 304 306 307 308
335 325 314 304 296 289 284 281 277 274 272 271 271 269 268 266 264 263 261 260 259 258 257 256 254 251 248 246 244 243 241 240 239 239 238 237 236 235 235 235 235 235 236 235 234 235 237 239 238 237 236 235 235 236 236 236 239 240 241 241 238 236 238 244 252 260 266 270 274 277 279 282 284 288 290 289 289 291 295 297 299 301 302 303 305
339 335 328 319 309 298 291 286 282 278 275 272 270 269 269 267 265 263 262 261 260 259 258 257 256 254 252 250 248 246 243 242 241 240 239 238 237 236 235 235 234 234 234 233 232 233 235 237 237 236 235 235 236 237 238 238 241 243 243 242 241 237 237 244 252 258 262 266 269 272 275 277 279 281 282 283 285 288 291 294 295 296 297 299 301
335 335 333 329 323 313 303 295 288 283 278 274 270 269 269 269 267 265 263 262 260 259 258 258 257 256 254 252 250 248 246 244 243 242 241 239 238 237 236 235 234 232 232 232 231 230 231 233 235 235 235 235 235 236 237 237 238 240 240 241 242 240 239 244 251 255 258 260 262 265 268 270 271 273 276 279 282 284 286 288 289 291 293 295 298
329 330 330 330 328 323 316 307 298 291 285 279 274 270 270 270 269 267 265 263 261 260 260 259 258 257 256 254 252 249 248 246 245 244 243 242 240 239 237 236 235 233 232 231 230 229 229 231 233 234 234 233 232 233 234 234 234 237 239 239 241 242 242 245 251 256 259 260 260 263 265 266 267 269 272 276 279 281 283 285 286 287 288 291 295
323 323 324 325 325 324 322 316 308 299 292 286 280 275 272 271 270 269 268 266 264 263 261 259 257 257 256 255 254 252 250 249 248 246 246 245 244 242 240 238 235 234 233 232 230 229 228 229 231 232 233 232 231 231 233 234 235 238 240 238 238 240 242 244 249 256 259 260 259 261 264 265 265 267 270 272 275 278 282 284 285 286 287 291 295
317 317 316 317 319 320 320 319 315 308 300 293 287 282 278 274 272 271 268 267 266 264 261 259 257 256 255 255 255 255 253 251 249 247 246 245 245 244 243 242 239 237 234 233 232 230 229 229 231 232 232 233 232 232 235 236 236 237 238 236 235 238 240 240 246 254 258 258 256 256 260 263 265 266 267 270 273 277 281 284 285 287 290 294 296
316 314 312 312 312 314 315 316 315 313 308 302 294 287 282 278 275 271 269 268 266 262 260 260 258 257 256 255 256 256 255 253 250 247 245 244 243 243 243 243 243 242 240 237 235 233 231 232 233 233 234 234 234 233 234 235 235 235 236 237 237 239 241 241 244 252 257 258 256 254 256 261 265 266 266 270 274 277 280 283 285 287 289 292 293
319 316 314 312 310 310 311 311 311 311 311 309 302 292 285 281 277 273 271 270 266 262 261 261 260 259 258 257 256 256 255 254 252 249 246 245 243 242 241 240 241 242 243 243 242 239 237 235 235 234 235 235 235 235 234 235 236 236 236 238 239 240 242 244 245 250 256 259 258 257 255 257 263 266 266 269 273 276 279 283 285 286 288 290 291
320 318 317 314 311 309 308 307 307 307 307 309 309 300 289 282 279 275 272 270 266 263 263 263 262 261 260 258 257 257 256 255 253 250 247 245 243 241 240 239 238 238 239 240 242 243 243 243 241 239 237 236 236 236 236 236 236 236 237 239 241 242 244 245 244 246 253 258 259 259 256 254 261 266 266 268 273 276 279 282 284 285 286 288 288
317 316 316 315 313 311 308 306 305 303 302 306 309 307 297 287 280 276 273 271 267 264 263 263 262 261 261 261 259 258 257 256 254 252 249 246 243 241 239 237 237 237 236 236 237 238 239 241 242 242 241 240 239 239 238 237 236 237 238 238 241 243 244 243 241 241 248 255 257 258 257 253 257 265 268 271 274 277 280 282 282 284 285 284 286
314 313 312 312 312 310 308 306 303 301 300 302 305 307 303 293 283 277 275 271 267 264 263 262 261 260 261 261 260 258 257 257 256 254 252 250 246 242 240 239 238 237 236 236 236 235 235 235 235 236 237 236 237 239 238 237 236 235 236 237 239 243 244 241 240 240 244 251 254 257 259 257 258 266 272 274 275 278 280 280 280 281 281 283 289
310 310 309 308 308 307 306 305 302 300 299 300 300 302 303 298 286 276 273 270 266 264 262 261 260 260 260 260 259 257 257 257 256 255 254 252 248 244 242 240 238 238 237 236 236 236 235 234 232 231 230 230 230 233 235 235 234 232 234 236 238 242 242 240 239 240 241 246 252 256 260 261 263 269 273 274 275 278 281 282 283 280 277 284 294
306 306 306 305 304 303 303 303 302 300 298 298 298 298 299 299 290 277 271 268 266 264 263 262 262 261 261 259 258 257 256 256 255 254 254 252 248 244 242 240 237 237 236 235 234 233 232 231 229 229 230 230 229 229 231 232 232 233 234 236 238 240 240 238 238 239 240 244 250 255 260 264 267 269 272 274 276 279 283 285 284 279 281 291 299
302 302 302 302 301 300 300 300 300 299 297 296 296 295 295 297 294 282 273 268 266 264 264 264 263 262 262 260 257 256 255 255 254 253 253 252 248 243 240 237 236 236 235 232 231 229 227 225 224 225 227 229 229 229 229 230 232 234 235 236 238 239 237 237 238 239 242 247 252 256 261 265 267 269 275 279 280 281 284 284 282 284 294 302 304
298 298 299 299 298 297 297 297 297 297 296 294 293 292 292 294 294 288 277 269 266 265 264 264 263 262 261 260 258 256 255 255 254 253 252 250 247 242 238 235 235 236 235 232 229 227 224 221 221 223 225 228 229 229 228 228 231 234 234 236 238 237 235 237 238 238 242 249 253 256 260 264 267 270 277 282 285 287 287 285 286 294 302 306 306